sat.trackr.live / text

‹ back to catalog

STARLINK-32960

NORAD 63197 · 2025-048Q

PAYLOAD ACTIVE UNKNOWN

§ Identity

Operator
Country
US
Launch date
2025-03-13
Launch site
AFETR
Launch vehicle
Mass (kg)
RCS (m²)

Purposes: comms

External: N2YO · Heavens-Above · Gunter

§ Orbital elements

Epoch: 2026-05-25T00:25:38.114400Z

Period
94.27 min
Inclination
43.0037°
Eccentricity
0.0001117
Mean motion
15.27592254 rev/d
Perigee alt
482.2 km
Apogee alt
483.8 km
Semi-major
6,861.1 km
B*
4.5400e-4
RAAN
14.4229°
Arg perigee
261.5210°
Mean anomaly
98.5515°
Rev number
6,876

§ Raw data

STARLINK-329601 63197U 25048Q   26145.01780225  .00012256  00000+0  45400-3 0  99992 63197  43.0037  14.4229 0001117 261.5210  98.5515 15.27592254 68766

JSON: /api/v1/satellites/63197 · /tle

For live sub-satellite position, see the globe view (requires WebGL).

§ Visibility from observer

Set your observer location to see the next 7 days of passes ≥ 10°. The values pass through the URL so the page stays shareable.

No JS? Fill the form by hand. The geolocation button needs JavaScript.